Theta_e
300 300 300 301 302 302 302 302 303 305 306 307 309 310 313 315 317 319 320 322 322 323 322 323 324 324 324 324 324 324 324 324 324 325 325 325 325 322 321 320 318 315 313 314 312 312 312 311 310 309 308 306 304 302 299 298 297 296 295 294 293 292
302 302 302 301 302 302 302 303 304 304 305 306 307 308 309 312 315 317 318 320 320 320 319 320 322 321 322 322 322 322 323 323 323 323 323 324 323 323 321 319 317 314 312 311 311 311 310 309 307 306 305 303 301 298 296 296 295 292 291 291 291 292
301 300 299 299 298 298 300 301 302 302 303 304 305 307 308 310 313 314 316 316 317 315 317 317 317 318 319 318 320 321 321 322 321 323 324 319 321 320 318 316 316 314 312 311 310 310 309 307 305 304 302 299 297 295 295 293 292 290 289 289 289 288
298 298 297 296 296 298 298 298 300 300 300 301 302 304 306 307 309 310 311 312 312 311 312 312 313 315 317 318 316 319 319 320 319 320 317 317 316 316 316 315 314 312 311 310 309 309 308 307 305 303 300 297 295 294 294 291 290 288 288 288 287 287
297 297 297 296 296 297 296 296 299 300 299 300 301 303 303 304 305 308 308 309 310 311 312 312 312 313 312 312 312 313 315 315 315 315 316 315 312 313 313 312 311 310 310 309 308 308 306 305 303 301 299 296 295 293 292 290 288 288 287 287 287 287
297 296 296 295 295 295 295 296 297 299 300 301 301 302 302 304 304 303 303 303 305 307 308 309 309 309 309 311 312 312 312 311 312 312 314 312 310 310 307 309 309 308 307 307 305 305 304 302 300 299 297 295 293 292 291 288 288 287 287 287 287 287
295 295 295 295 295 294 296 297 299 299 298 299 299 300 300 301 303 304 303 301 302 304 306 306 307 310 311 313 312 311 309 308 307 309 312 309 308 308 306 305 305 306 306 305 305 304 302 301 299 298 295 293 292 291 290 288 287 286 286 286 287 287
295 295 295 296 296 297 297 298 299 298 297 298 298 298 298 298 299 299 301 301 304 305 305 305 305 306 308 309 307 308 306 305 304 306 305 307 308 304 304 305 303 304 304 303 303 303 301 299 298 296 294 292 290 289 288 287 286 286 286 286 286 286
296 297 297 297 297 296 298 298 300 298 297 296 297 298 297 297 298 297 297 300 303 302 302 303 303 303 303 303 304 303 301 301 299 301 302 300 303 302 301 299 301 301 303 302 301 300 298 297 296 294 292 291 290 289 287 286 286 286 286 286 286 286
295 295 296 296 297 297 298 299 299 299 297 296 295 296 296 296 296 298 300 300 300 300 300 300 300 300 300 298 296 297 295 295 294 295 295 294 299 298 298 299 299 298 298 299 300 299 297 297 295 293 291 290 289 288 287 287 286 286 285 285 285 285
296 296 296 297 295 296 296 296 296 295 295 295 296 295 296 298 299 298 298 298 298 298 299 299 300 298 295 294 295 294 294 294 293 293 293 293 293 295 296 297 297 296 296 295 295 295 295 296 295 293 291 289 288 287 287 286 286 285 285 284 284 284
297 297 297 296 297 296 296 296 296 296 296 297 298 299 299 299 298 298 298 298 297 296 296 296 296 295 293 293 293 292 292 292 292 292 293 293 293 293 293 294 294 295 296 295 294 294 294 294 294 290 291 290 288 287 287 286 285 285 284 284 283 283
298 297 297 297 297 297 298 298 298 297 296 296 298 299 299 299 298 297 297 297 296 294 293 292 291 290 291 291 290 290 291 291 290 291 291 291 291 291 291 292 293 293 293 294 294 294 294 294 293 290 292 292 291 288 286 285 285 284 284 283 283 282
298 298 298 297 297 297 297 297 297 296 296 296 297 297 298 298 298 297 296 295 293 292 292 290 290 290 289 289 290 290 289 289 289 290 290 289 290 290 289 291 292 292 291 291 291 292 293 293 290 292 292 292 291 289 286 285 284 284 283 283 282 282
298 299 298 296 298 298 298 297 296 296 296 296 295 296 296 297 296 296 295 293 292 291 290 290 290 290 289 289 289 289 288 288 289 289 289 289 289 288 290 291 290 290 290 290 290 290 290 289 290 292 292 291 291 290 287 285 284 283 283 282 282 282
298 298 298 298 298 297 296 297 296 296 295 295 293 294 295 296 295 296 293 291 291 290 290 290 290 290 289 289 288 288 288 288 288 288 288 288 288 289 289 288 289 289 289 290 290 289 289 288 289 292 292 291 291 290 287 284 284 283 282 282 282 282
297 297 296 296 296 294 295 293 293 293 293 293 293 293 295 295 294 294 293 292 291 290 290 289 289 289 289 288 288 288 288 288 288 288 288 288 288 288 289 289 288 289 288 288 288 288 287 287 290 291 291 291 291 290 287 284 284 283 282 282 282 281
297 297 297 294 295 294 294 295 293 294 292 290 291 291 293 293 293 293 292 292 291 290 290 290 289 289 289 288 288 287 287 287 287 287 287 287 287 287 288 287 287 287 287 288 288 287 287 287 290 291 291 291 291 290 284 283 283 282 282 281 281 281
295 295 294 294 294 294 293 292 292 292 290 290 290 291 292 292 292 292 292 292 291 290 290 290 289 288 288 287 287 287 287 287 287 287 287 287 287 287 287 287 287 287 287 286 287 287 286 286 288 290 290 290 291 288 284 283 283 282 281 281 281 281
293 293 294 292 291 291 291 290 291 291 290 289 290 291 291 292 292 292 292 292 292 291 290 290 290 288 287 287 287 287 287 287 287 287 287 287 286 287 287 286 286 286 286 286 286 287 286 286 287 289 290 290 290 286 284 283 282 281 281 280 280 280
290 289 289 289 290 289 288 288 289 289 288 287 289 290 291 291 292 291 292 291 291 291 290 290 289 288 287 287 287 287 287 286 286 286 286 287 286 286 286 286 286 286 286 286 286 286 286 286 286 288 289 290 289 286 283 283 282 280 280 279 279 279
289 289 289 288 288 287 288 288 288 287 287 286 287 288 289 290 291 292 292 292 291 291 290 289 288 288 287 287 287 287 287 286 286 286 286 286 286 286 286 286 286 285 286 286 286 286 286 286 286 287 289 289 289 287 283 282 281 280 279 279 279 278
286 286 286 286 286 286 287 288 288 287 286 286 286 285 287 289 291 291 292 291 291 290 289 288 288 287 287 287 287 287 286 286 286 286 286 285 286 285 285 285 285 285 285 285 285 285 285 286 285 286 288 289 289 288 285 282 281 281 280 279 278 278
285 285 284 284 284 286 286 287 287 286 286 286 286 285 285 288 290 291 291 291 290 289 288 288 287 287 287 286 286 286 286 286 286 286 286 286 285 285 284 285 284 285 285 285 285 285 285 285 285 285 287 288 288 288 287 282 282 282 280 279 278 277
284 284 283 284 284 285 285 286 286 285 285 285 284 285 286 286 287 288 289 289 288 287 287 287 287 287 287 286 286 286 286 285 285 285 285 285 285 284 284 284 284 284 284 284 284 285 285 285 285 285 285 287 288 288 288 286 283 285 280 279 278 278
284 284 283 283 283 283 283 286 286 285 285 284 283 284 285 285 284 285 286 287 287 287 286 286 286 286 286 286 286 286 285 285 285 284 284 284 284 283 283 282 283 282 282 282 282 283 283 283 283 284 285 285 287 288 288 287 286 286 280 280 279 280
284 285 285 285 284 283 282 283 285 284 284 283 283 283 284 284 284 284 283 284 285 285 285 285 285 285 285 285 286 285 285 284 284 283 283 283 283 283 282 281 282 282 282 282 281 281 281 281 281 281 283 284 285 287 287 287 286 286 285 281 281 281
285 285 284 283 282 282 282 282 282 283 281 282 282 281 283 283 283 282 282 281 281 281 282 283 284 285 285 285 285 285 285 284 283 283 282 282 282 282 282 281 281 281 281 281 281 281 281 280 279 281 281 283 283 284 286 286 286 285 285 283 281 282
285 284 284 282 280 280 280 280 281 281 281 281 281 282 282 282 282 281 280 279 279 279 279 279 280 281 283 283 284 284 283 283 283 283 282 282 282 282 281 281 280 280 280 280 280 280 280 280 279 279 280 281 281 281 282 283 284 284 284 282 280 281
284 284 283 281 280 278 278 278 278 278 280 280 281 281 282 282 281 280 278 278 279 279 279 278 279 279 277 279 281 280 280 281 282 282 281 281 281 281 281 281 280 280 280 280 280 280 279 279 279 279 280 281 281 281 281 282 283 282 282 280 279 279
283 282 281 280 279 277 276 275 276 277 277 278 279 281 280 280 279 278 277 278 278 278 278 278 277 277 277 276 278 278 279 279 279 279 279 279 279 279 279 278 278 279 278 278 278 278 278 277 278 280 283 282 283 282 281 281 282 282 281 281 280 278
282 280 279 278 277 276 274 274 274 274 275 276 277 279 279 278 278 277 277 277 277 277 277 277 275 276 276 276 275 276 276 280 282 280 277 278 282 283 283 283 279 278 279 278 279 279 279 279 279 283 284 284 284 284 284 283 283 283 281 282 282 279
280 278 277 277 276 274 273 272 272 273 273 274 274 277 278 278 278 277 277 277 276 276 276 275 275 276 276 276 275 274 274 274 277 282 282 282 281 282 282 283 282 283 283 280 278 280 284 284 285 285 285 284 285 285 285 284 284 284 283 283 280 277
278 277 276 275 273 272 271 271 270 271 271 272 274 275 277 278 278 277 276 275 275 276 276 274 274 274 275 273 273 274 274 273 274 274 280 282 281 281 281 282 282 282 282 283 282 279 276 282 285 285 285 284 284 284 284 284 284 284 284 283 282 276
276 275 274 272 271 270 270 269 269 269 269 271 272 274 276 276 277 276 275 275 275 274 275 274 274 274 274 273 273 274 273 273 273 273 273 275 280 280 281 281 281 282 282 282 282 283 283 282 283 285 284 284 284 284 284 284 284 285 284 284 280 276
273 272 271 270 269 268 268 267 267 267 268 269 271 273 274 274 274 274 274 274 274 274 273 273 273 274 273 273 272 273 273 273 272 271 272 273 272 273 277 280 281 281 281 282 282 282 282 282 283 284 284 284 284 284 284 284 283 284 285 283 279 277
271 270 270 270 269 268 267 266 266 266 266 267 269 272 273 273 273 273 273 273 274 274 274 273 272 272 273 272 272 271 271 271 271 272 272 272 272 273 273 272 274 279 281 279 280 281 282 282 282 283 284 284 284 284 284 284 281 280 280 281 280 278
270 270 269 269 268 267 266 265 265 266 266 267 268 271 272 272 273 273 272 272 273 273 272 272 273 272 273 272 271 271 271 271 271 271 271 272 272 273 273 275 277 277 280 281 281 281 281 281 282 282 282 283 283 283 283 279 278 277 277 278 279 278
Wind_Speed
4 4 5 4 3 3 4 4 4 5 5 6 7 9 9 9 8 8 9 10 9 9 10 11 12 11 10 9 7 7 9 9 9 10 9 8 8 9 10 10 10 9 8 8 9 9 9 9 9 9 8 7 7 7 7 6 7 7 6 6 7 6
2 3 4 4 3 2 1 1 1 3 5 5 6 5 5 6 8 8 9 9 8 7 6 6 7 7 7 7 7 8 8 8 8 9 9 10 8 9 9 9 10 10 10 8 9 9 9 9 8 8 9 8 7 7 7 7 7 7 7 6 6 6
0 1 3 3 3 3 2 1 2 1 1 4 4 5 5 6 6 6 6 6 6 6 7 7 6 7 6 7 8 8 8 7 8 8 7 6 8 8 9 9 10 10 11 10 10 11 10 10 9 8 8 7 7 7 7 7 8 8 6 7 7 5
3 3 3 3 4 4 4 3 2 2 3 3 3 3 4 5 4 3 3 2 2 4 4 4 4 5 6 7 7 7 7 7 8 7 6 7 7 8 9 10 9 9 10 10 10 10 10 10 11 11 10 10 9 7 6 8 9 8 7 7 7 7
3 3 5 4 4 4 4 4 4 4 4 4 4 4 5 4 4 1 2 2 1 0 0 0 1 1 3 4 5 5 5 5 5 5 7 7 6 6 8 9 8 9 9 9 10 11 10 10 9 8 10 10 11 11 9 8 10 10 9 9 8 8
1 1 1 3 3 2 3 3 3 3 4 5 5 5 5 5 4 3 4 3 1 0 0 2 3 3 4 5 4 4 4 4 4 5 6 6 6 7 5 7 9 9 9 10 10 10 10 10 10 9 9 11 12 12 11 10 10 9 9 10 9 9
2 3 4 4 4 3 3 4 4 4 4 4 4 4 4 4 5 6 5 4 4 3 2 3 3 4 5 5 4 4 4 4 4 4 6 7 8 8 8 7 6 9 9 10 11 11 11 11 11 12 10 9 10 12 12 11 10 10 9 9 9 9
4 4 4 4 4 5 5 5 5 4 4 4 4 4 4 3 3 4 4 4 4 3 4 3 3 4 4 4 4 4 4 4 4 5 5 7 9 7 7 9 8 9 10 9 9 9 9 9 10 12 12 12 11 10 10 10 10 10 9 8 8 8
4 5 5 5 5 5 6 6 6 5 5 4 2 1 1 1 1 2 3 3 3 3 2 2 3 2 2 2 3 3 3 4 4 5 5 4 6 9 8 6 8 8 10 11 10 10 10 9 8 8 10 11 11 12 11 10 10 9 8 7 8 7
4 5 5 5 5 5 6 6 6 6 6 5 3 3 3 3 2 1 1 1 2 3 3 3 2 2 2 2 2 3 3 3 3 4 3 4 6 6 8 9 9 8 7 8 10 11 10 11 10 10 10 11 12 11 10 11 11 11 9 8 7 7
4 5 5 6 5 6 5 5 5 4 4 5 5 4 4 5 4 3 3 2 3 3 2 2 1 1 2 3 3 4 4 5 5 4 5 4 4 5 6 6 7 7 7 6 6 7 9 11 11 10 11 11 11 11 11 11 11 12 11 8 7 6
4 5 5 5 7 7 7 7 7 7 7 7 7 7 5 6 5 5 4 4 4 3 3 3 4 3 3 2 3 3 4 4 4 5 5 5 5 5 4 5 5 7 8 9 8 7 8 9 8 10 16 15 13 12 10 10 10 11 11 11 9 7
5 5 6 7 8 9 9 9 8 7 8 7 7 7 7 7 6 6 5 5 4 3 3 3 3 3 3 3 3 3 3 4 4 4 4 4 4 4 4 5 5 6 5 6 9 10 9 9 9 15 15 15 16 12 11 12 11 10 11 11 11 11
6 6 7 7 7 8 7 8 7 8 9 8 8 7 6 6 6 6 6 5 5 4 4 4 4 4 3 3 3 3 3 3 4 4 4 4 4 4 4 5 5 5 4 4 4 5 6 7 11 19 19 18 18 14 12 11 11 10 10 10 10 9
7 8 7 6 6 7 8 7 7 9 8 8 7 6 7 6 5 5 5 5 5 5 5 5 5 5 4 4 4 4 4 4 4 4 5 6 4 4 5 6 6 6 5 6 6 6 5 4 9 15 18 18 19 17 13 9 11 12 11 10 10 10
6 7 7 7 7 6 6 8 8 7 6 7 6 8 7 7 6 6 6 6 6 6 6 5 6 5 5 5 5 5 5 5 5 4 4 4 4 6 6 4 6 5 6 7 7 6 5 5 11 15 16 17 18 18 13 9 11 10 11 11 11 10
6 6 5 6 5 4 5 5 5 5 5 6 7 6 7 7 7 7 7 7 7 6 6 6 6 6 5 5 5 5 4 4 5 5 5 5 6 6 7 6 6 7 6 6 6 6 5 5 11 15 16 16 17 16 11 8 7 8 8 8 9 10
8 8 8 5 5 5 5 6 6 7 6 5 7 6 6 7 7 6 6 7 7 7 6 6 6 5 5 5 5 4 4 4 4 5 4 4 3 3 4 3 3 5 5 6 6 5 6 4 11 13 14 15 16 15 7 7 8 8 8 8 8 8
6 6 5 5 5 6 5 5 6 7 7 6 6 7 7 7 7 8 8 8 7 7 6 6 6 5 5 4 4 4 4 4 4 4 3 4 4 4 5 5 4 4 5 5 5 6 5 5 10 14 15 16 18 12 7 7 7 7 9 9 8 8
4 3 5 6 5 5 5 5 6 7 7 6 6 7 7 7 7 6 6 6 7 7 7 6 7 6 6 6 6 5 4 3 3 4 4 6 6 6 5 4 4 4 5 6 7 7 8 7 11 15 16 17 18 13 10 9 8 8 8 7 6 6
4 4 4 4 5 3 5 5 6 6 5 5 5 5 5 6 5 5 6 6 6 7 7 7 7 6 6 6 6 6 6 6 5 4 4 4 4 4 4 4 4 4 3 4 4 6 6 5 8 14 16 17 17 12 7 8 8 9 7 7 7 5
4 2 2 3 4 4 6 5 6 5 5 4 5 4 4 4 4 4 5 6 7 7 6 5 6 5 6 5 4 4 5 5 5 5 5 4 4 4 4 4 4 5 4 4 4 5 5 6 6 9 15 14 15 9 8 7 9 10 9 7 8 8
4 4 3 3 4 5 5 6 6 6 5 6 5 4 4 4 3 4 5 6 7 6 6 5 5 6 4 4 4 4 4 4 5 5 5 5 4 4 4 5 4 4 4 4 4 4 4 6 8 9 14 15 11 10 12 8 9 8 9 9 9 8
6 6 4 3 4 4 5 5 6 6 6 6 5 5 5 6 5 4 5 6 6 6 5 5 4 5 5 5 6 5 4 3 4 5 5 4 5 6 6 5 5 5 4 4 4 5 6 7 11 9 15 16 17 13 14 9 9 8 9 8 7 7
6 5 4 3 3 3 4 6 6 5 5 5 4 4 5 5 5 4 5 5 5 5 6 5 5 5 4 5 5 5 5 3 4 3 3 4 4 5 5 5 4 4 4 3 3 2 3 4 6 10 10 15 14 11 12 5 5 7 6 8 10 10
6 6 4 4 4 3 3 6 7 5 6 5 4 5 5 6 5 5 5 5 5 6 5 5 5 5 4 4 4 4 4 4 3 2 2 2 3 3 3 2 2 2 3 3 3 2 1 1 2 5 8 8 13 7 6 5 6 8 6 5 6 6
9 7 6 5 5 4 4 3 7 6 5 1 4 4 5 5 5 5 5 5 5 6 5 5 5 5 4 4 5 5 4 4 4 3 2 3 3 3 3 3 3 4 4 4 4 4 3 2 3 3 6 8 9 9 7 5 5 7 9 6 4 4
8 8 9 7 6 6 6 6 5 7 2 3 4 4 5 6 6 5 5 5 5 5 6 7 6 5 5 4 3 3 3 4 4 3 3 3 3 3 4 3 3 4 3 4 3 3 4 3 3 4 4 5 6 6 7 7 7 7 7 6 3 4
9 9 8 9 6 7 6 7 7 5 4 5 4 5 6 7 7 7 6 6 6 5 6 6 5 5 5 4 4 4 4 3 3 3 3 3 3 3 3 3 4 4 4 5 4 4 4 5 4 4 4 4 4 5 6 7 7 7 6 4 3 3
9 9 9 9 7 7 7 7 7 6 6 5 5 6 7 7 7 7 6 6 5 5 6 6 7 7 5 4 4 4 4 2 3 3 4 4 4 4 4 4 4 5 6 6 5 4 4 5 6 6 7 6 7 6 6 6 5 6 6 5 4 3
10 10 10 9 7 7 7 7 7 7 7 5 5 7 8 8 7 7 6 6 6 6 5 5 4 5 5 4 5 4 3 4 2 2 1 1 2 2 3 3 3 4 3 3 4 5 5 5 7 9 5 5 6 7 7 7 7 6 6 6 8 5
10 10 9 7 7 7 7 7 6 6 6 4 4 7 10 8 8 7 6 6 6 6 6 5 5 5 5 4 4 5 4 5 5 3 2 0 1 3 2 3 2 3 4 3 5 4 6 7 5 3 8 9 10 11 11 9 8 9 6 9 14 8
10 10 9 7 6 7 7 7 6 7 7 5 4 5 7 7 8 7 6 6 5 6 6 5 5 5 5 4 4 3 3 2 2 4 5 4 4 5 4 2 3 3 1 2 5 4 6 7 5 9 10 11 11 11 11 11 12 13 12 14 10 7
10 10 9 7 7 7 7 8 7 7 6 6 5 4 5 5 7 7 6 6 5 6 5 5 5 5 6 4 4 4 4 2 1 2 2 1 1 1 2 4 4 3 2 4 3 3 3 4 5 8 10 11 12 12 11 11 12 13 15 16 14 8
8 8 8 8 8 8 7 8 6 6 6 6 5 4 7 6 7 7 6 5 6 6 6 6 5 5 5 5 4 4 3 3 2 2 3 3 3 2 2 3 3 4 4 4 5 5 4 3 2 6 8 10 11 12 13 12 14 14 16 17 11 10
9 8 8 9 9 9 8 8 5 5 4 4 4 6 7 7 7 6 6 5 5 6 5 5 4 5 6 5 4 4 4 3 2 2 2 3 5 3 2 2 5 7 7 7 8 7 6 6 6 5 8 9 11 12 13 13 10 15 19 16 10 8
9 8 7 8 8 9 9 8 4 4 3 4 4 7 8 8 7 7 7 8 6 5 6 5 5 5 6 5 4 4 4 3 3 2 2 1 1 2 3 4 3 4 6 6 5 7 8 8 8 8 8 10 11 12 13 13 7 9 9 11 9 7
10 8 6 7 7 8 9 8 5 5 5 4 4 6 6 6 6 6 6 5 6 6 5 5 5 5 5 5 4 4 4 5 4 4 2 1 1 1 2 2 2 1 2 5 6 7 7 7 9 9 10 10 12 12 12 8 8 8 9 9 9 10
Wind_Direction
211 202 202 197 187 190 197 210 207 204 207 208 205 213 217 216 216 214 214 211 213 213 213 212 214 212 209 206 202 194 200 196 193 193 193 183 183 179 181 187 188 187 189 181 166 164 164 161 159 154 151 150 142 142 141 145 139 139 151 153 143 149
150 136 141 148 152 128 93 87 121 193 204 202 214 215 211 211 212 209 211 209 206 207 204 211 211 209 203 200 196 197 202 198 189 189 186 186 177 185 183 184 186 183 180 176 168 164 162 160 155 152 149 146 148 146 145 152 141 144 155 151 142 146
84 119 110 110 95 86 85 131 180 214 207 212 214 209 220 221 218 207 212 200 204 193 198 200 199 201 195 195 197 198 200 197 189 189 183 158 181 176 179 184 186 181 179 172 170 166 165 158 155 155 148 145 147 150 148 148 147 148 154 145 140 140
179 153 130 141 147 162 173 180 191 214 221 218 225 224 228 230 235 218 195 169 167 183 184 194 194 194 195 198 197 199 193 191 186 180 167 176 175 170 178 182 184 178 177 175 170 169 167 166 164 163 154 149 148 148 149 149 147 149 154 147 147 146
187 179 176 184 186 187 189 195 196 201 206 214 212 198 227 217 224 190 131 134 124 222 52 219 241 232 215 198 203 199 195 190 178 169 174 174 169 174 173 177 174 175 175 174 170 166 164 163 162 165 156 154 154 154 157 157 154 157 160 157 158 155
142 141 179 181 180 183 198 213 233 231 211 197 189 191 201 206 196 137 112 101 84 60 314 241 229 228 227 222 215 207 199 186 177 168 171 165 162 169 168 169 173 173 175 172 171 167 165 163 159 160 163 159 156 155 159 160 158 161 165 160 160 158
208 230 224 203 184 187 193 198 208 225 211 184 181 185 183 172 160 149 151 153 164 170 196 228 221 218 225 227 215 215 194 183 174 176 175 162 171 172 161 169 171 175 173 174 175 172 171 171 165 163 161 159 157 156 158 162 159 160 163 166 164 161
221 211 208 196 182 183 190 195 192 204 200 196 190 189 193 189 142 140 152 150 161 192 215 228 224 225 225 219 208 201 191 175 172 182 177 171 169 166 173 171 175 177 179 177 179 178 173 167 167 163 162 155 151 151 156 158 156 155 157 161 164 162
222 217 205 200 190 186 190 192 188 186 188 193 186 174 162 152 86 73 93 114 137 160 191 208 229 230 242 245 228 202 184 179 171 167 174 178 169 169 175 182 178 186 180 179 170 168 165 163 159 158 156 152 153 154 155 155 151 149 151 160 160 160
217 208 209 202 203 192 193 196 190 183 180 189 187 165 141 121 104 83 102 113 161 178 191 184 165 164 155 120 108 117 122 125 139 155 147 156 168 176 179 176 184 187 182 187 182 171 161 162 160 162 161 157 156 156 159 157 152 148 147 149 151 151
213 207 203 203 194 198 198 196 195 181 182 182 183 168 162 145 145 164 177 195 216 220 195 188 214 131 112 128 129 136 143 148 148 143 150 165 178 185 188 182 170 162 165 165 174 165 164 165 167 164 162 157 159 158 157 158 151 147 146 145 144 141
206 201 194 196 196 199 199 196 194 193 189 191 184 179 182 148 166 167 179 193 201 193 189 182 182 182 143 127 145 153 151 152 154 156 165 177 179 174 169 167 169 175 174 169 170 170 162 166 168 173 168 164 161 162 156 153 151 149 150 149 144 141
202 196 193 201 199 201 198 198 195 192 194 192 190 187 180 164 166 169 174 185 176 159 142 132 132 130 157 165 148 141 142 142 140 143 148 146 146 153 160 161 165 179 175 174 174 174 177 172 171 166 168 167 162 159 160 156 155 152 154 156 155 155
201 203 214 216 210 202 198 197 192 186 199 191 189 183 169 171 172 170 172 169 152 150 150 146 141 142 145 140 155 154 150 141 145 151 146 141 145 149 141 161 174 171 173 170 181 194 191 189 176 168 168 167 167 167 164 158 154 156 158 161 159 155
204 207 219 219 212 206 208 186 181 199 194 187 184 156 164 170 170 163 163 158 152 154 148 149 154 155 155 158 151 148 136 140 139 143 154 170 163 140 160 176 161 171 167 168 175 188 185 172 182 172 168 167 168 168 164 161 156 156 162 162 161 158
207 210 207 211 214 204 194 181 189 196 179 170 156 159 166 166 172 169 165 159 163 157 159 160 159 162 162 152 146 143 145 154 165 162 155 142 144 165 168 163 171 165 172 177 177 179 184 173 181 176 172 170 169 167 162 162 160 159 161 163 162 161
206 212 220 222 196 175 153 176 167 146 143 149 155 161 163 174 172 174 165 164 163 159 161 162 163 158 153 150 146 147 155 159 153 157 164 164 171 173 178 176 176 178 171 169 166 164 176 191 184 175 173 171 169 166 156 155 153 154 157 161 162 164
200 201 214 195 157 173 171 177 158 143 153 144 153 160 167 172 178 177 166 165 166 167 165 160 158 146 141 143 147 152 157 161 166 164 156 146 146 138 129 134 145 164 173 171 163 161 169 170 186 177 175 172 168 159 149 155 155 155 158 159 165 166
196 202 168 161 167 165 183 165 150 143 141 147 157 160 168 172 185 184 175 170 166 161 156 153 147 145 145 146 147 159 164 164 165 156 148 148 157 158 163 172 169 162 161 164 166 169 166 162 184 180 178 176 169 156 154 156 155 157 159 167 167 168
132 128 143 151 154 167 155 149 145 143 148 156 156 163 175 181 193 185 171 166 160 154 153 152 152 153 155 159 170 170 167 157 152 161 165 164 165 173 175 159 148 156 167 172 181 180 175 179 186 182 182 181 177 168 161 161 158 160 161 160 162 158
143 131 109 121 132 121 121 127 131 136 150 150 151 163 180 187 181 178 174 162 152 151 156 157 155 158 161 172 174 165 165 170 166 155 153 154 151 150 138 144 151 156 168 180 181 175 174 174 187 189 187 185 180 169 163 158 156 159 167 160 159 160
82 78 98 119 154 142 129 133 130 135 141 142 135 157 186 187 179 170 159 149 150 150 149 151 153 158 165 169 160 162 163 150 143 155 154 146 145 144 146 147 153 165 179 173 179 180 176 169 182 195 192 191 183 164 163 164 161 172 168 168 167 165
91 102 96 110 130 133 136 133 131 136 142 137 138 163 179 175 166 155 155 146 143 142 143 143 153 156 156 151 154 151 146 157 155 150 152 147 133 134 139 155 155 164 170 170 175 168 178 175 176 191 192 191 183 173 175 177 182 173 169 171 175 179
110 103 80 71 102 127 137 134 133 140 139 143 155 174 165 153 161 156 144 140 136 135 136 138 135 141 143 137 137 144 157 155 152 159 157 153 154 157 160 162 167 171 172 170 172 177 179 178 179 179 189 192 191 184 184 183 193 179 167 166 177 176
109 105 108 81 75 111 138 127 130 131 131 135 171 152 135 138 145 151 144 137 133 134 136 134 138 136 134 143 147 149 153 147 148 151 149 153 151 156 159 166 167 166 173 177 186 185 178 174 178 181 187 195 195 194 196 180 172 150 162 172 181 191
95 86 66 54 46 57 104 129 130 133 126 145 151 115 113 113 121 127 125 124 121 118 112 113 110 107 113 125 126 126 129 133 131 125 144 138 140 143 146 140 143 157 175 191 191 194 125 111 156 189 195 201 204 208 203 175 162 166 174 184 197 194
115 106 84 59 50 42 55 90 118 114 105 105 103 107 109 112 112 112 111 108 110 106 104 100 98 103 106 116 129 131 129 130 133 137 123 131 131 137 157 164 167 187 193 195 203 193 174 141 152 178 199 200 208 210 204 201 172 178 174 191 203 181
104 105 96 64 46 46 46 52 83 94 89 73 82 92 97 101 97 92 91 86 85 89 92 90 80 79 85 88 93 104 125 142 146 140 132 134 143 150 166 169 175 193 197 208 205 196 188 185 168 187 193 199 202 205 208 203 195 196 194 192 170 164
104 97 89 76 46 49 50 59 54 61 61 64 71 79 87 87 90 88 82 83 83 81 86 91 90 87 78 81 80 82 94 110 128 124 132 147 155 165 174 180 183 197 205 208 207 194 181 193 199 203 202 191 185 191 206 209 209 200 187 186 154 139
100 93 83 69 53 49 52 53 49 44 53 58 68 81 82 82 86 91 89 88 87 86 88 90 98 97 92 88 98 102 91 96 119 137 161 174 179 177 194 195 199 206 208 213 206 197 192 203 208 209 199 189 186 193 194 201 198 199 199 181 160 135
95 90 83 74 65 60 57 52 44 35 41 44 66 89 90 90 87 88 84 84 84 80 82 93 96 103 101 92 80 82 116 143 141 117 91 163 163 177 188 213 240 236 229 211 209 199 221 228 224 226 197 191 185 184 186 196 201 194 195 174 149 124
97 93 82 77 72 69 65 55 43 32 26 31 70 101 107 110 104 98 95 96 96 96 94 87 81 88 96 100 99 85 49 51 95 98 132 62 262 190 141 138 209 213 202 216 234 204 217 229 248 147 175 185 186 193 197 199 196 196 172 164 164 151
99 94 89 88 86 74 68 58 37 30 17 14 32 93 112 114 109 105 101 98 95 102 106 103 93 88 92 92 94 86 91 54 25 84 97 95 47 23 13 51 53 35 4 187 236 257 241 240 183 166 177 182 185 190 196 198 199 200 182 168 153 169
107 104 99 97 87 80 71 62 39 27 14 11 11 40 82 95 102 101 98 97 96 92 96 102 107 102 100 94 88 99 102 104 69 347 345 34 115 56 9 7 355 350 321 323 314 298 318 292 196 170 179 184 185 188 186 186 186 188 176 178 170 189
103 100 101 98 97 88 78 69 40 22 17 13 15 51 77 82 95 101 102 101 94 93 94 98 97 102 107 109 104 90 94 92 80 49 355 359 25 347 308 298 290 279 283 274 274 275 263 269 243 192 188 191 196 198 200 197 196 193 184 182 192 212
99 98 102 101 96 94 85 72 42 22 9 12 41 70 81 82 85 92 104 109 111 106 104 104 112 111 111 115 112 113 105 95 93 85 66 14 345 0 346 303 267 265 266 265 260 257 256 258 254 227 195 195 199 204 205 204 204 204 202 199 211 210
100 93 90 97 97 89 80 70 35 7 2 23 65 86 88 92 95 94 86 90 103 107 110 112 109 108 110 108 107 108 102 100 95 96 81 64 32 349 332 323 319 282 246 248 262 266 266 262 254 247 217 203 206 208 209 211 211 219 230 226 232 226
96 92 84 76 80 81 76 57 19 5 6 20 53 77 86 94 99 93 89 77 76 80 82 81 80 81 89 92 93 95 90 92 82 75 63 66 60 32 294 303 298 303 298 257 257 265 273 271 264 256 246 233 218 212 207 211 217 223 225 225 229 229